Powrót do katalogu

CZ-4 DEB

AktywnyPO
NORAD 35378·DEBRIS·🇨🇳 China

Wystrzelony Oct 23, 2006 z Taiyuan Satellite Launch Center

Loading…

Następne Przeloty (najbliższe 24 godziny)

TLE

ŚwieżeSource: Space-Track

Epoka: Sep 14, 2026, 13:35 UTC

1 35378U 06046L   26257.56664466  .00061353  00000-0  15388-2 0  9992
2 35378  97.8213   2.1817 0036374 283.9607  75.7594 15.39126702 54355

Śledź CZ-4 DEB w czasie rzeczywistym z AllMySat

Download on the App Store